WGN102 LGAV-HECA

Flight info

Callsign WGN102
Flight time 1h 25m
Altitude 35000
Route KEA UN132 KUPIS DCT LAPSO UN132 KUMBI L612 BLT A16 CVO
Aircraft MD11/H-SDE1E2E3FGHIJ2J3J4J5M1RWXY/LB1D1

Departure

Time 2026-05-06 05:44
Airport Athens Eleftherios Venizelos International Airport (LGAV)

Arrival

Time 2026-05-06 07:09
Airport Cairo International Airport (HECA)
Time Latitude Longitude Altitude Speed Heading
2026-05-06 05:23 37.92624 23.94026 309 ft 0 kts 217°
2026-05-06 05:27 37.92632 23.94033 309 ft 4 kts 218°
2026-05-06 05:28 37.92652 23.94054 309 ft 2 kts 219°
2026-05-06 05:28 37.92670 23.94070 307 ft 4 kts 189°
2026-05-06 05:28 37.92688 23.94068 307 ft 4 kts 139°
2026-05-06 05:28 37.92705 23.94044 307 ft 4 kts 126°
2026-05-06 05:29 37.92708 23.94039 308 ft 0 kts 127°
2026-05-06 05:38 37.92681 23.94084 310 ft 11 kts 127°
2026-05-06 05:38 37.92624 23.94177 311 ft 12 kts 128°
2026-05-06 05:38 37.92611 23.94272 312 ft 13 kts 62°
2026-05-06 05:38 37.92690 23.94370 311 ft 19 kts 37°
2026-05-06 05:39 37.92815 23.94490 312 ft 26 kts 36°
2026-05-06 05:39 37.92977 23.94642 309 ft 32 kts 37°
2026-05-06 05:39 37.93170 23.94826 308 ft 37 kts 37°
2026-05-06 05:39 37.93391 23.95036 310 ft 42 kts 38°
2026-05-06 05:40 37.93635 23.95271 307 ft 46 kts 37°
2026-05-06 05:40 37.93894 23.95516 306 ft 47 kts 36°
2026-05-06 05:40 37.94158 23.95766 306 ft 48 kts 37°
2026-05-06 05:40 37.94424 23.96016 308 ft 48 kts 37°
2026-05-06 05:41 37.94692 23.96269 310 ft 48 kts 37°
2026-05-06 05:41 37.94960 23.96523 310 ft 48 kts 37°
2026-05-06 05:41 37.95200 23.96749 312 ft 38 kts 37°
2026-05-06 05:41 37.95291 23.96875 312 ft 9 kts 92°
2026-05-06 05:42 37.95266 23.96941 316 ft 9 kts 121°
2026-05-06 05:42 37.95230 23.96996 317 ft 6 kts 139°
2026-05-06 05:42 37.95198 23.97004 317 ft 6 kts 173°
2026-05-06 05:42 37.95161 23.96988 317 ft 7 kts 212°
2026-05-06 05:43 37.95110 23.96942 315 ft 11 kts 216°
2026-05-06 05:43 37.95050 23.96887 316 ft 0 kts 216°
2026-05-06 05:43 37.95049 23.96887 316 ft 0 kts 216°
2026-05-06 05:43 37.95005 23.96846 315 ft 34 kts 216°
2026-05-06 05:44 37.94571 23.96434 302 ft 120 kts 217°
2026-05-06 05:44 37.93705 23.95618 287 ft 185 kts 217°
2026-05-06 05:44 37.92592 23.94560 583 ft 209 kts 217°
2026-05-06 05:44 37.91794 23.93839 945 ft 217 kts 214°
2026-05-06 05:45 37.90014 23.92442 1886 ft 233 kts 212°
2026-05-06 05:45 37.89079 23.91735 2405 ft 240 kts 211°
2026-05-06 05:45 37.87610 23.90791 3610 ft 233 kts 206°
2026-05-06 05:45 37.86075 23.89900 4489 ft 246 kts 206°
2026-05-06 05:46 37.84514 23.88963 5474 ft 251 kts 207°
2026-05-06 05:46 37.82937 23.87970 6395 ft 256 kts 208°
2026-05-06 05:46 37.81340 23.86928 7254 ft 261 kts 209°
2026-05-06 05:46 37.79722 23.85844 8089 ft 265 kts 209°
2026-05-06 05:47 37.78001 23.84920 8780 ft 278 kts 196°
2026-05-06 05:47 37.76028 23.84837 9369 ft 290 kts 167°
2026-05-06 05:47 37.74228 23.85976 10122 ft 295 kts 137°
2026-05-06 05:47 37.72886 23.88058 10337 ft 320 kts 120°
2026-05-06 05:48 37.71787 23.90645 10488 ft 348 kts 115°
2026-05-06 05:48 37.70696 23.93495 10803 ft 368 kts 114°
2026-05-06 05:48 37.69571 23.96431 11571 ft 375 kts 115°
2026-05-06 05:48 37.68403 23.99405 12311 ft 382 kts 116°
2026-05-06 05:49 37.67189 24.02427 13038 ft 389 kts 116°
2026-05-06 05:49 37.65938 24.05493 13728 ft 396 kts 116°
2026-05-06 05:49 37.64655 24.08605 14379 ft 402 kts 116°
2026-05-06 05:49 37.63354 24.11746 15026 ft 407 kts 116°
2026-05-06 05:50 37.62031 24.14932 15645 ft 412 kts 116°
2026-05-06 05:50 37.60690 24.18153 16248 ft 417 kts 116°
2026-05-06 05:50 37.59335 24.21405 16845 ft 422 kts 116°
2026-05-06 05:50 37.57963 24.24698 17431 ft 427 kts 116°
2026-05-06 05:51 37.56529 24.28001 17951 ft 433 kts 121°
2026-05-06 05:51 37.54696 24.31044 18513 ft 439 kts 130°
2026-05-06 05:51 37.52588 24.33858 18979 ft 444 kts 134°
2026-05-06 05:51 37.50360 24.36581 19488 ft 448 kts 136°
2026-05-06 05:52 37.48094 24.39290 19961 ft 451 kts 136°
2026-05-06 05:52 37.45815 24.42029 20441 ft 455 kts 135°
2026-05-06 05:52 37.43533 24.44805 20917 ft 458 kts 135°
2026-05-06 05:52 37.41244 24.47620 21409 ft 462 kts 135°
2026-05-06 05:53 37.38978 24.50425 21901 ft 466 kts 135°
2026-05-06 05:53 37.36635 24.53333 22439 ft 468 kts 135°
2026-05-06 05:53 37.34342 24.56182 22928 ft 472 kts 135°
2026-05-06 05:53 37.32008 24.59080 23428 ft 476 kts 135°
2026-05-06 05:54 37.29612 24.62051 23894 ft 480 kts 135°
2026-05-06 05:54 37.27228 24.65005 24350 ft 483 kts 135°
2026-05-06 05:54 37.24859 24.67935 24809 ft 486 kts 135°
2026-05-06 05:54 37.22442 24.70922 25264 ft 489 kts 135°
2026-05-06 05:55 37.20004 24.73931 25746 ft 493 kts 135°
2026-05-06 05:55 37.17550 24.76958 26212 ft 496 kts 135°
2026-05-06 05:55 37.15084 24.79997 26661 ft 499 kts 135°
2026-05-06 05:55 37.12595 24.83060 27117 ft 503 kts 135°
2026-05-06 05:56 37.10091 24.86139 27564 ft 506 kts 135°
2026-05-06 05:56 37.07571 24.89235 27995 ft 509 kts 135°
2026-05-06 05:56 37.05032 24.92351 28451 ft 512 kts 135°
2026-05-06 05:56 37.02479 24.95481 28883 ft 515 kts 135°
2026-05-06 05:57 36.99911 24.98626 29320 ft 519 kts 135°
2026-05-06 05:57 36.97325 25.01788 29743 ft 522 kts 135°
2026-05-06 05:57 36.94716 25.04963 30161 ft 524 kts 135°
2026-05-06 05:57 36.92092 25.08136 30523 ft 526 kts 136°
2026-05-06 05:58 36.89450 25.11295 30936 ft 526 kts 136°
2026-05-06 05:58 36.86803 25.14440 31381 ft 525 kts 136°
2026-05-06 05:58 36.84153 25.17581 31802 ft 525 kts 136°
2026-05-06 05:58 36.81510 25.20712 32214 ft 524 kts 135°
2026-05-06 05:59 36.78864 25.23846 32615 ft 524 kts 135°
2026-05-06 05:59 36.76254 25.26938 33006 ft 523 kts 135°
2026-05-06 05:59 36.73580 25.30105 33386 ft 523 kts 135°
2026-05-06 05:59 36.70977 25.33184 33782 ft 523 kts 135°
2026-05-06 06:00 36.68306 25.36343 34181 ft 521 kts 135°
2026-05-06 06:00 36.65719 25.39403 34528 ft 519 kts 135°
2026-05-06 06:00 36.63117 25.42519 34863 ft 518 kts 135°
2026-05-06 06:00 36.60525 25.45653 34986 ft 521 kts 135°
2026-05-06 06:01 36.55343 25.51952 35020 ft 521 kts 135°
2026-05-06 06:01 36.50157 25.58250 35021 ft 521 kts 135°
2026-05-06 06:02 36.44963 25.64536 35037 ft 521 kts 135°
2026-05-06 06:02 36.39775 25.70799 35022 ft 519 kts 135°
2026-05-06 06:03 36.34594 25.77039 35018 ft 519 kts 136°
2026-05-06 06:03 36.29406 25.83276 35018 ft 519 kts 136°
2026-05-06 06:04 36.24214 25.89502 35020 ft 519 kts 136°
2026-05-06 06:04 36.18985 25.95681 35031 ft 519 kts 136°
2026-05-06 06:05 36.13757 26.01831 35014 ft 519 kts 137°
2026-05-06 06:05 36.08532 26.07978 35016 ft 519 kts 136°
2026-05-06 06:06 36.03300 26.14129 35019 ft 519 kts 137°
2026-05-06 06:06 35.98068 26.20270 35019 ft 519 kts 137°
2026-05-06 06:07 35.92837 26.26396 35031 ft 518 kts 137°
2026-05-06 06:07 35.87604 26.32514 35017 ft 518 kts 137°
2026-05-06 06:08 35.82408 26.38576 35017 ft 518 kts 137°
2026-05-06 06:08 35.77183 26.44661 35019 ft 518 kts 137°
2026-05-06 06:09 35.71944 26.50749 35014 ft 518 kts 137°
2026-05-06 06:09 35.66700 26.56833 35027 ft 518 kts 137°
2026-05-06 06:10 35.61450 26.62894 35014 ft 517 kts 137°
2026-05-06 06:10 35.56197 26.68932 35014 ft 517 kts 137°
2026-05-06 06:11 35.50941 26.74984 35013 ft 519 kts 138°
2026-05-06 06:11 35.45676 26.81046 35013 ft 519 kts 138°
2026-05-06 06:12 35.40406 26.87102 35014 ft 519 kts 138°
2026-05-06 06:12 35.35134 26.93149 35000 ft 519 kts 138°
2026-05-06 06:13 35.29855 26.99194 35002 ft 519 kts 138°
2026-05-06 06:13 35.24596 27.05203 35000 ft 519 kts 138°
2026-05-06 06:14 35.19312 27.11229 35001 ft 519 kts 138°
2026-05-06 06:14 35.14023 27.17249 35008 ft 519 kts 138°
2026-05-06 06:15 35.08741 27.23251 35006 ft 519 kts 138°
2026-05-06 06:15 35.03442 27.29243 35008 ft 519 kts 139°
2026-05-06 06:16 34.98170 27.35168 35008 ft 519 kts 139°
2026-05-06 06:16 34.92868 27.41132 35008 ft 519 kts 138°
2026-05-06 06:17 34.87561 27.47103 35007 ft 520 kts 139°
2026-05-06 06:17 34.82243 27.53077 35009 ft 520 kts 139°
2026-05-06 06:18 34.76919 27.59046 35011 ft 521 kts 139°
2026-05-06 06:18 34.71593 27.65006 35009 ft 521 kts 139°
2026-05-06 06:19 34.66261 27.70961 35009 ft 520 kts 139°
2026-05-06 06:19 34.60930 27.76905 34990 ft 520 kts 139°
2026-05-06 06:20 34.55590 27.82848 35008 ft 521 kts 139°
2026-05-06 06:20 34.50244 27.88786 35011 ft 521 kts 140°
2026-05-06 06:21 34.44893 27.94719 35009 ft 521 kts 140°
2026-05-06 06:21 34.39534 28.00620 35011 ft 521 kts 140°
2026-05-06 06:22 34.34168 28.06527 35020 ft 521 kts 140°
2026-05-06 06:22 34.28807 28.12434 34996 ft 521 kts 140°
2026-05-06 06:23 34.23442 28.18342 35013 ft 521 kts 140°
2026-05-06 06:23 34.18096 28.24216 35014 ft 521 kts 140°
2026-05-06 06:24 34.12726 28.30107 35014 ft 521 kts 140°
2026-05-06 06:24 34.07358 28.35983 35016 ft 521 kts 140°
2026-05-06 06:25 34.01976 28.41865 35017 ft 522 kts 140°
2026-05-06 06:26 33.93939 28.50629 35009 ft 521 kts 140°
2026-05-06 06:26 33.88559 28.56482 35020 ft 521 kts 141°
2026-05-06 06:27 33.83178 28.62325 35016 ft 521 kts 141°
2026-05-06 06:27 33.77779 28.68150 35021 ft 521 kts 141°
2026-05-06 06:28 33.72379 28.73976 35016 ft 522 kts 141°
2026-05-06 06:28 33.67034 28.79899 35016 ft 523 kts 140°
2026-05-06 06:29 33.61740 28.85864 35015 ft 521 kts 139°
2026-05-06 06:29 33.56458 28.91809 35015 ft 521 kts 140°
2026-05-06 06:30 33.51169 28.97737 35025 ft 521 kts 140°
2026-05-06 06:30 33.45868 29.03661 35025 ft 521 kts 140°
2026-05-06 06:31 33.40564 29.09580 35021 ft 521 kts 140°
2026-05-06 06:31 33.36154 29.14492 35018 ft 521 kts 140°
2026-05-06 06:32 33.30855 29.20388 35007 ft 519 kts 140°
2026-05-06 06:32 33.25569 29.26257 35024 ft 518 kts 140°
2026-05-06 06:33 33.20276 29.32124 35022 ft 519 kts 140°
2026-05-06 06:33 33.14978 29.37987 35021 ft 519 kts 140°
2026-05-06 06:34 33.09679 29.43832 35022 ft 519 kts 140°
2026-05-06 06:34 33.04368 29.49658 35019 ft 519 kts 140°
2026-05-06 06:35 32.99065 29.55483 35012 ft 518 kts 140°
2026-05-06 06:35 32.93782 29.61289 35015 ft 516 kts 140°
2026-05-06 06:36 32.88507 29.67076 35016 ft 516 kts 140°
2026-05-06 06:36 32.83230 29.72856 35026 ft 516 kts 140°
2026-05-06 06:37 32.77953 29.78626 35036 ft 516 kts 140°
2026-05-06 06:37 32.72672 29.84390 35034 ft 516 kts 140°
2026-05-06 06:38 32.67388 29.90147 35005 ft 515 kts 140°
2026-05-06 06:38 32.62127 29.95871 35028 ft 512 kts 140°
2026-05-06 06:39 32.56890 30.01559 35031 ft 512 kts 141°
2026-05-06 06:39 32.51634 30.07257 35031 ft 512 kts 141°
2026-05-06 06:40 32.46374 30.12938 35031 ft 512 kts 141°
2026-05-06 06:40 32.41149 30.18576 35033 ft 512 kts 141°
2026-05-06 06:41 32.35892 30.24258 35031 ft 512 kts 141°
2026-05-06 06:41 32.30645 30.29928 35031 ft 510 kts 141°
2026-05-06 06:42 32.25403 30.35583 35036 ft 510 kts 141°
2026-05-06 06:42 32.20160 30.41228 35034 ft 510 kts 141°
2026-05-06 06:43 32.14916 30.46863 35034 ft 510 kts 141°
2026-05-06 06:43 32.09671 30.52492 35033 ft 510 kts 141°
2026-05-06 06:44 32.04418 30.58120 35036 ft 510 kts 141°
2026-05-06 06:44 31.99165 30.63740 35037 ft 510 kts 141°
2026-05-06 06:45 31.93912 30.69349 35036 ft 510 kts 141°
2026-05-06 06:45 31.88650 30.74960 35034 ft 510 kts 141°
2026-05-06 06:46 31.83382 30.80543 35031 ft 510 kts 141°
2026-05-06 06:46 31.78116 30.86120 35031 ft 510 kts 141°
2026-05-06 06:47 31.72853 30.91700 35029 ft 510 kts 141°
2026-05-06 06:47 31.67587 30.97280 35019 ft 509 kts 142°
2026-05-06 06:48 31.62334 31.02838 35030 ft 508 kts 142°
2026-05-06 06:48 31.57106 31.08333 35026 ft 506 kts 143°
2026-05-06 06:49 31.51273 31.12728 35031 ft 491 kts 162°
2026-05-06 06:49 31.48083 31.13955 34798 ft 474 kts 173°
2026-05-06 06:49 31.44858 31.14556 34564 ft 468 kts 179°
2026-05-06 06:49 31.41623 31.14926 34114 ft 467 kts 180°
2026-05-06 06:50 31.38385 31.15287 33460 ft 468 kts 179°
2026-05-06 06:50 31.35148 31.15719 32851 ft 469 kts 178°
2026-05-06 06:50 31.31905 31.16230 32276 ft 472 kts 177°
2026-05-06 06:50 31.28648 31.16799 31698 ft 474 kts 176°
2026-05-06 06:51 31.25383 31.17401 31130 ft 476 kts 176°
2026-05-06 06:51 31.22107 31.18018 30535 ft 478 kts 176°
2026-05-06 06:51 31.18822 31.18638 29890 ft 479 kts 176°
2026-05-06 06:51 31.15524 31.19258 29209 ft 482 kts 176°
2026-05-06 06:52 31.12206 31.19879 28509 ft 484 kts 176°
2026-05-06 06:52 31.08889 31.20500 27862 ft 481 kts 175°
2026-05-06 06:52 31.05597 31.21115 27205 ft 478 kts 175°
2026-05-06 06:52 31.02324 31.21726 26555 ft 475 kts 175°
2026-05-06 06:53 30.99068 31.22332 25910 ft 473 kts 175°
2026-05-06 06:53 30.95831 31.22933 25278 ft 470 kts 175°
2026-05-06 06:53 30.92610 31.23531 24631 ft 467 kts 175°
2026-05-06 06:53 30.89417 31.24122 23982 ft 465 kts 174°
2026-05-06 06:54 30.86231 31.24713 23289 ft 460 kts 175°
2026-05-06 06:54 30.83092 31.25295 22616 ft 455 kts 175°
2026-05-06 06:54 30.79978 31.25872 21976 ft 452 kts 175°
2026-05-06 06:54 30.76883 31.26444 21367 ft 449 kts 175°
2026-05-06 06:55 30.73830 31.27010 20745 ft 438 kts 175°
2026-05-06 06:55 30.70872 31.27560 20146 ft 424 kts 175°
2026-05-06 06:55 30.68005 31.28092 19580 ft 412 kts 175°
2026-05-06 06:55 30.65214 31.28609 19028 ft 401 kts 175°
2026-05-06 06:56 30.62527 31.29104 18480 ft 391 kts 175°
2026-05-06 06:56 30.59872 31.29592 17893 ft 383 kts 174°
2026-05-06 06:56 30.57272 31.30069 17356 ft 373 kts 175°
2026-05-06 06:56 30.54735 31.30535 16834 ft 365 kts 175°
2026-05-06 06:57 30.52260 31.30990 16331 ft 356 kts 175°
2026-05-06 06:57 30.49835 31.31436 15843 ft 349 kts 175°
2026-05-06 06:57 30.47459 31.31871 15364 ft 342 kts 175°
2026-05-06 06:57 30.45132 31.32298 14889 ft 336 kts 175°
2026-05-06 06:58 30.42836 31.32720 14406 ft 332 kts 175°
2026-05-06 06:58 30.40568 31.33136 13958 ft 328 kts 174°
2026-05-06 06:58 30.38326 31.33548 13428 ft 324 kts 174°
2026-05-06 06:58 30.36109 31.33956 12950 ft 322 kts 174°
2026-05-06 06:59 30.33907 31.34361 12499 ft 319 kts 174°
2026-05-06 06:59 30.31723 31.34764 12052 ft 317 kts 174°
2026-05-06 06:59 30.29556 31.35162 11620 ft 314 kts 174°
2026-05-06 06:59 30.27405 31.35559 11326 ft 311 kts 174°
2026-05-06 07:00 30.25271 31.35952 11171 ft 310 kts 174°
2026-05-06 07:00 30.23135 31.36344 11114 ft 311 kts 174°
2026-05-06 07:00 30.21004 31.36736 11008 ft 310 kts 174°
2026-05-06 07:00 30.18871 31.37129 10897 ft 310 kts 174°
2026-05-06 07:01 30.16747 31.37518 10786 ft 309 kts 173°
2026-05-06 07:01 30.14645 31.37905 10644 ft 309 kts 173°
2026-05-06 07:01 30.12527 31.38294 10310 ft 306 kts 173°
2026-05-06 07:01 30.10428 31.38472 9762 ft 301 kts 187°
2026-05-06 07:02 30.08465 31.37820 9221 ft 289 kts 213°
2026-05-06 07:02 30.06906 31.36468 8745 ft 278 kts 225°
2026-05-06 07:02 30.05534 31.34959 8298 ft 271 kts 227°
2026-05-06 07:02 30.04218 31.33452 7855 ft 259 kts 227°
2026-05-06 07:03 30.02974 31.32032 7428 ft 244 kts 227°
2026-05-06 07:03 30.01816 31.30719 7077 ft 229 kts 227°
2026-05-06 07:03 30.00710 31.29470 6735 ft 217 kts 227°
2026-05-06 07:03 29.99651 31.28277 6404 ft 212 kts 227°
2026-05-06 07:04 29.98579 31.27116 6036 ft 212 kts 219°
2026-05-06 07:04 29.97195 31.26606 5413 ft 210 kts 175°
2026-05-06 07:04 29.95901 31.27288 4810 ft 207 kts 130°
2026-05-06 07:04 29.95384 31.28745 4130 ft 195 kts 84°
2026-05-06 07:05 29.95954 31.30038 3874 ft 185 kts 34°
2026-05-06 07:05 29.97178 31.30470 3737 ft 188 kts
2026-05-06 07:05 29.98455 31.30557 3378 ft 177 kts
2026-05-06 07:05 29.99657 31.30604 2965 ft 171 kts
2026-05-06 07:06 30.00822 31.30737 2694 ft 168 kts 22°
2026-05-06 07:06 30.01702 31.31574 2769 ft 167 kts 46°
2026-05-06 07:06 30.02520 31.32536 2712 ft 167 kts 43°
2026-05-06 07:06 30.03339 31.33495 2654 ft 167 kts 45°
2026-05-06 07:07 30.04105 31.34480 2369 ft 163 kts 47°
2026-05-06 07:07 30.04849 31.35466 2145 ft 162 kts 46°
2026-05-06 07:07 30.05587 31.36441 1916 ft 161 kts 46°
2026-05-06 07:07 30.06319 31.37410 1692 ft 159 kts 46°
2026-05-06 07:08 30.07048 31.38375 1459 ft 161 kts 46°
2026-05-06 07:08 30.07786 31.39342 1098 ft 159 kts 46°
2026-05-06 07:08 30.08510 31.40315 831 ft 160 kts 47°
2026-05-06 07:08 30.09236 31.41270 577 ft 158 kts 46°
2026-05-06 07:09 30.09953 31.42222 390 ft 155 kts 46°
2026-05-06 07:09 30.10573 31.43040 379 ft 102 kts 50°
2026-05-06 07:09 30.10880 31.43422 381 ft 52 kts 38°
2026-05-06 07:09 30.11131 31.43587 382 ft 24 kts 22°
2026-05-06 07:10 30.11244 31.43537 382 ft 18 kts 289°
2026-05-06 07:10 30.11262 31.43432 382 ft 12 kts 308°
2026-05-06 07:10 30.11317 31.43363 382 ft 14 kts 313°
2026-05-06 07:10 30.11396 31.43274 382 ft 18 kts 317°
2026-05-06 07:11 30.11508 31.43179 382 ft 22 kts 327°
2026-05-06 07:11 30.11644 31.43069 382 ft 26 kts 316°
2026-05-06 07:11 30.11778 31.42911 382 ft 29 kts 314°
2026-05-06 07:11 30.11932 31.42742 381 ft 33 kts 319°
2026-05-06 07:12 30.12106 31.42566 381 ft 36 kts 319°
2026-05-06 07:12 30.12194 31.42407 382 ft 19 kts 255°
2026-05-06 07:12 30.12111 31.42275 382 ft 23 kts 229°
2026-05-06 07:12 30.11995 31.42122 382 ft 27 kts 229°
2026-05-06 07:13 30.11861 31.41944 382 ft 31 kts 229°
2026-05-06 07:13 30.11706 31.41738 382 ft 35 kts 229°
2026-05-06 07:13 30.11542 31.41519 382 ft 39 kts 229°
2026-05-06 07:13 30.11411 31.41304 382 ft 23 kts 264°
2026-05-06 07:14 30.11359 31.41120 382 ft 27 kts 232°
2026-05-06 07:14 30.11229 31.40944 382 ft 31 kts 229°
2026-05-06 07:14 30.11078 31.40746 382 ft 35 kts 229°
2026-05-06 07:14 30.10911 31.40525 381 ft 38 kts 229°
2026-05-06 07:15 30.10728 31.40282 382 ft 42 kts 229°
2026-05-06 07:15 30.10534 31.40027 382 ft 37 kts 229°
2026-05-06 07:15 30.10448 31.39907 382 ft 2 kts 254°
2026-05-06 07:15 30.10453 31.39899 382 ft 1 kts 296°
2026-05-06 07:16 30.10482 31.39870 381 ft 12 kts 319°
2026-05-06 07:16 30.10547 31.39760 381 ft 22 kts 281°
2026-05-06 07:16 30.10524 31.39577 381 ft 6 kts 263°
2026-05-06 07:16 30.10559 31.39525 381 ft 14 kts 327°
2026-05-06 07:17 30.10679 31.39473 381 ft 18 kts 345°
2026-05-06 07:17 30.10739 31.39415 382 ft 9 kts 279°
2026-05-06 07:17 30.10737 31.39367 381 ft 5 kts 258°
2026-05-06 07:17 30.10734 31.39354 381 ft 0 kts 256°